Location: Rounton
(54.4000°N, 1.3500°W)
Time: 21:50:38
(UTC+00:00)

Vanguard 1 - Pass Details

Date: 07 December 2021
Orbit: 652 x 3830 km, 34.2° (Epoch: 16 January)

Event Time Altitude Azimuth Distance (km) Brightness Sun altitude
Rises 03:53:27 0° 269° (W) 7,931 - -36.0°
Reaches altitude 10° 03:59:47 10° 261° (W) 6,937 - -35.1°
Exits shadow 04:14:59 31° 222° (SW) 4,950 13.2 -32.9°
Maximum altitude 04:17:51 32° 210° (SSW) 4,744 13.1 -32.5°
Drops below altitude 10° 04:31:31 10° 155° (SSE) 5,231 14.0 -30.5°
Sets 04:35:29 0° 146° (SE) 5,822 14.4 -30.0°
